Location: Czekanka
(50.4925°N, 19.2643°E)
Time: 11:42:40
(UTC+00:00)

MSX - Pass Details

Date: 15 June 2024
Orbit: 894 x 905 km, 99.0° (Epoch: 15 July)

Event Time Altitude Azimuth Distance (km) Brightness Sun altitude
Rises 01:19:32 0° 12° (NNE) 3,523 8.3 -8.5°
Reaches altitude 10° 01:21:58 10° 9° (N) 2,578 7.3 -8.3°
Maximum altitude 01:27:34 57° 292° (WNW) 1,054 4.2 -7.8°
Drops below altitude 10° 01:33:08 10° 216° (SW) 2,565 5.5 -7.2°
Enters shadow 01:33:27 - 215° (SW) 2,685 5.6 -7.2°
